STARLINK-32556, 61858

Orbit data source: Space-Track

STARLINK-32556, 61858 is a payload satellite owned by SpaceX/Seattle (US) in LEO that was launched on Thu, 07 Nov 2024 UTC via an FALCON 9 launch vehicle from the Air Force Eastern Test Range (AFETR). Payload-class satellites include a variety of spacecraft equipped with specific instruments for various scientific and technological missions. These include communications satellites like Starlink; space stations such as the ISS; scientific satellites like the Hubble; Earth observation satellites from companies like Planet Labs, Umbra, and HawkEye 360; GPS; miniature CubeSats for education and research; and military/defense satellites.

Loading next visibility...
Identifier
61858, 2024-202P
Orbit
LEO
Last TLE update
1 day ago
Origin
Manufacturer
SpaceX/Seattle
Mission
Operational Commercial Communications
Bus & Motor
STARLINK V2M, Unknown motor
Mass
730 kg wet, ~700 kg dry
Launch date (UTC)
2024-11-07 (8 months ago)
Launch vehicle
FALCON 9
Launch site
Air Force Eastern Test Range (AFETR)
Object type
Payload
Rocket body
Debris
Shape & HBR
Box + 2 Pan, 29 m
Radar Cross Section
33.884 m², Large (>1 m²)

Expand to show TLE details & history

TLE from 1 day ago
0 STARLINK-32556
1 61858U 24202P   25181.13568713  .00000762  00000-0  37219-4 0  9990
2 61858  42.9999 224.2052 0001537 273.2916  86.7760 15.27573357 36711
Epoch: 2025-06-30T03:15Z
TLE epoch observation values (Epoch: 2025-06-30T03:15:23.368Z)
Latitude
0.00002°
Longitude
-103.09198°
Altitude
482.785 km
Speed
7.626 km/s
True Right ascension
14h 56m 49s
True Declination
0° 00' 00"
Sunlit
Object was in full shadow at epoch
Visualization orbit readout
Latitude
12.15594°
Longitude
-96.11037°
Altitude
482.21 km
Speed
7.627 km/s
Apparent Right ascension
12h 21m 19s
Apparent Declination
-35° 01' 14"
Sunlit
Object is in full shadow
Visualization observer readout
Local Sidereal Time
17:38:26
Azimuth
236.239° WSW
Elevation
-14.561°
Doppler factor
1
Orbital elements
Apogee altitude
486.069 km
Perigee altitude
483.959 km
Semi-major axis
6,863.151 km
Eccentricity
0.00015
Inclination
42.9999°
RAAN
224.2052°
Arg. of periapsis
273.2916°
True anomaly
Unknown
Mean anomaly
86.776°
Eccentric anomaly
Unknown
Mean motion
3.81731 °/min
Orbital period
94.31 mins
BSTAR
0.000037219
Loading maneuver chart data...
Loading SW <> Apogee altitude chart data...
Loading historical data...
Loading historical data...
Loading historical data...
Loading historical data...
Loading historical data...
Loading historical data...
Loading historical data...

STARLINK-32556 Visibility forecast

Observer location: undefined°, undefined°

Span
Click to sort rows by Start time (UTC) header in descending order
Start Az.
Max El. time (UTC)
Max El. Az.
Max El.
End time (UTC)
End Az.
6 mins2025-07-01 06:08:43.470Z222.089° SW2025-07-01 06:11:43.470Z154.11° SSE34.742°2025-07-01 06:14:43.470Z82.961° E
5 mins2025-07-01 07:48:43.470Z275.152° WNW2025-07-01 07:50:43.470Z355.133° N41.513°2025-07-01 07:53:43.470Z69.114° E
5 mins2025-07-01 09:27:43.470Z295.639° NW2025-07-01 09:29:43.470Z355.04° N39.377°2025-07-01 09:32:43.470Z83.135° E
5 mins2025-07-01 11:06:43.470Z277.705° WNW2025-07-01 11:08:43.470Z218.983° SW40.561°2025-07-01 11:11:43.470Z127.326° SE
5 mins2025-07-02 05:41:43.470Z215.459° SW2025-07-02 05:43:43.470Z166.889° S33.675°2025-07-02 05:46:43.470Z85.238° E
|